CAT701 EKBI-GCLA

Flight info

Callsign CAT701
Flight time N/A
Altitude 34000
Route ASKOV DCT IPSUB P174 KUBAT N872 MEDIL DCT CMB DCT KIHVI UN872 ERIGA UZ218 FUJTI DCT DELOG DCT NUBLO DCT ARDID DCT ABRAT DCT LIGRA DCT BEXAL UN866 KONBA
Aircraft B738/M-SDE2E3FGHIRWXY/LB1

Departure

Time 2026-04-29 11:52
Airport Billund Airport (EKBI)

Arrival

Time N/A
Airport La Palma Airport (GCLA)
Time Latitude Longitude Altitude Speed Heading
2026-04-29 11:29 55.74521 9.14486 215 ft 0 kts 357°
2026-04-29 11:43 55.74501 9.14487 219 ft 4 kts 359°
2026-04-29 11:44 55.74474 9.14486 218 ft 4 kts
2026-04-29 11:44 55.74449 9.14474 218 ft 4 kts 35°
2026-04-29 11:44 55.74439 9.14450 225 ft 1 kts 87°
2026-04-29 11:46 55.74439 9.14456 226 ft 1 kts 87°
2026-04-29 11:47 55.74440 9.14503 225 ft 7 kts 87°
2026-04-29 11:47 55.74444 9.14635 221 ft 14 kts 87°
2026-04-29 11:47 55.74451 9.14828 215 ft 16 kts 86°
2026-04-29 11:47 55.74404 9.14978 219 ft 16 kts 171°
2026-04-29 11:48 55.74296 9.14991 217 ft 15 kts 176°
2026-04-29 11:48 55.74203 9.15041 215 ft 15 kts 117°
2026-04-29 11:48 55.74202 9.15215 215 ft 14 kts 87°
2026-04-29 11:48 55.74207 9.15383 215 ft 14 kts 87°
2026-04-29 11:49 55.74213 9.15557 215 ft 15 kts 86°
2026-04-29 11:49 55.74218 9.15744 218 ft 16 kts 89°
2026-04-29 11:49 55.74225 9.15944 220 ft 18 kts 86°
2026-04-29 11:49 55.74233 9.16196 215 ft 23 kts 87°
2026-04-29 11:50 55.74242 9.16505 215 ft 27 kts 86°
2026-04-29 11:50 55.74253 9.16861 222 ft 30 kts 86°
2026-04-29 11:50 55.74265 9.17230 215 ft 29 kts 87°
2026-04-29 11:50 55.74276 9.17580 215 ft 28 kts 86°
2026-04-29 11:51 55.74286 9.17912 215 ft 26 kts 86°
2026-04-29 11:51 55.74205 9.18142 219 ft 25 kts 180°
2026-04-29 11:51 55.74124 9.18051 215 ft 1 kts 262°
2026-04-29 11:51 55.74122 9.18031 215 ft 15 kts 264°
2026-04-29 11:52 55.74103 9.17421 221 ft 84 kts 266°
2026-04-29 11:52 55.74058 9.15999 215 ft 144 kts 266°
2026-04-29 11:52 55.73997 9.14003 515 ft 166 kts 266°
2026-04-29 11:52 55.74036 9.11901 1143 ft 178 kts 285°
2026-04-29 11:53 55.74574 9.09945 1935 ft 177 kts 307°
2026-04-29 11:53 55.75358 9.08221 2576 ft 184 kts 310°
2026-04-29 11:53 55.76306 9.06537 2908 ft 206 kts 329°
2026-04-29 11:53 55.77598 9.05202 3090 ft 225 kts 315°
2026-04-29 11:54 55.78430 9.02773 3430 ft 236 kts 295°
2026-04-29 11:54 55.79087 8.99999 3686 ft 255 kts 281°
2026-04-29 11:54 55.78972 8.96877 4130 ft 264 kts 248°
2026-04-29 11:54 55.78073 8.94044 4907 ft 266 kts 233°
2026-04-29 11:55 55.76912 8.91440 5604 ft 271 kts 230°
2026-04-29 11:55 55.75675 8.88852 6289 ft 278 kts 229°
2026-04-29 11:55 55.74407 8.86223 7006 ft 283 kts 230°
2026-04-29 11:55 55.73120 8.83548 7679 ft 287 kts 230°
2026-04-29 11:56 55.71820 8.80817 8321 ft 292 kts 230°
2026-04-29 11:56 55.70502 8.78032 8983 ft 298 kts 231°
2026-04-29 11:56 55.69163 8.75188 9651 ft 302 kts 231°
2026-04-29 11:56 55.67807 8.72304 10306 ft 308 kts 231°
2026-04-29 11:57 55.66422 8.69352 10803 ft 317 kts 231°
2026-04-29 11:57 55.64966 8.66244 10955 ft 339 kts 231°
2026-04-29 11:57 55.63412 8.62930 11134 ft 359 kts 231°
2026-04-29 11:57 55.61775 8.59441 11345 ft 377 kts 231°
2026-04-29 11:58 55.60079 8.55833 11814 ft 384 kts 231°
2026-04-29 11:58 55.58359 8.52181 12373 ft 389 kts 231°
2026-04-29 11:58 55.56611 8.48476 12962 ft 394 kts 231°
2026-04-29 11:58 55.55202 8.45491 13426 ft 398 kts 231°
2026-04-29 11:59 55.53414 8.41708 13989 ft 403 kts 231°
2026-04-29 11:59 55.51608 8.37894 14523 ft 408 kts 231°
2026-04-29 11:59 55.49780 8.34035 15048 ft 412 kts 231°
2026-04-29 11:59 55.48922 8.32228 15298 ft 413 kts 231°
2026-04-29 12:00 55.47717 8.29689 15653 ft 415 kts 231°
2026-04-29 12:00 55.46704 8.27556 15940 ft 417 kts 231°
2026-04-29 12:00 55.44827 8.23614 16433 ft 421 kts 231°
2026-04-29 12:00 55.43576 8.20990 16758 ft 424 kts 231°
2026-04-29 12:01 55.41296 8.17151 17256 ft 429 kts 213°
2026-04-29 12:01 55.38610 8.14904 17778 ft 429 kts 195°
2026-04-29 12:01 55.36614 8.13859 18142 ft 430 kts 193°
2026-04-29 12:01 55.34534 8.12824 18476 ft 433 kts 193°
2026-04-29 12:02 55.32342 8.11752 18805 ft 437 kts 193°
2026-04-29 12:02 55.29746 8.10478 19187 ft 440 kts 193°
2026-04-29 12:02 55.27728 8.09475 19491 ft 441 kts 193°
2026-04-29 12:02 55.24772 8.07984 19957 ft 443 kts 193°
2026-04-29 12:03 55.23062 8.07114 20220 ft 445 kts 194°
2026-04-29 12:03 55.21926 8.06533 20397 ft 446 kts 194°
2026-04-29 12:03 55.19366 8.05220 20759 ft 448 kts 194°
2026-04-29 12:03 55.16365 8.03677 21176 ft 451 kts 194°
2026-04-29 12:04 55.13351 8.02129 21597 ft 453 kts 194°
2026-04-29 12:04 55.10312 8.00570 22013 ft 456 kts 193°
2026-04-29 12:04 55.07257 7.99007 22417 ft 458 kts 193°
2026-04-29 12:04 55.04186 7.97439 22820 ft 461 kts 193°
2026-04-29 12:05 55.01135 7.95885 23214 ft 463 kts 193°
2026-04-29 12:05 54.98009 7.94488 23598 ft 464 kts 189°
2026-04-29 12:05 54.95910 7.93741 23899 ft 463 kts 188°
2026-04-29 12:05 54.91674 7.92383 24445 ft 464 kts 187°
2026-04-29 12:06 54.89565 7.91727 24601 ft 467 kts 187°
2026-04-29 12:06 54.86345 7.90713 24795 ft 473 kts 187°
2026-04-29 12:06 54.83107 7.89665 25151 ft 473 kts 187°
2026-04-29 12:06 54.79867 7.88595 25522 ft 474 kts 187°
2026-04-29 12:07 54.76625 7.87515 25828 ft 476 kts 187°
2026-04-29 12:07 54.72365 7.86097 26198 ft 479 kts 187°
2026-04-29 12:07 54.70197 7.85379 26388 ft 480 kts 187°
2026-04-29 12:07 54.66906 7.84291 26679 ft 482 kts 187°
2026-04-29 12:08 54.63612 7.83204 26972 ft 483 kts 187°
2026-04-29 12:08 54.60302 7.82113 27257 ft 485 kts 187°
2026-04-29 12:08 54.56983 7.81020 27527 ft 487 kts 187°
2026-04-29 12:08 54.53640 7.79921 27785 ft 489 kts 187°
2026-04-29 12:09 54.50293 7.78821 28043 ft 490 kts 187°
2026-04-29 12:09 54.46971 7.77732 28297 ft 492 kts 187°
2026-04-29 12:09 54.43558 7.76615 28549 ft 494 kts 187°
2026-04-29 12:09 54.40177 7.75510 28799 ft 495 kts 187°
2026-04-29 12:10 54.36787 7.74403 29121 ft 495 kts 187°
2026-04-29 12:10 54.33413 7.73303 29505 ft 493 kts 187°
2026-04-29 12:10 54.30044 7.72206 29891 ft 492 kts 187°
2026-04-29 12:10 54.26729 7.71130 30197 ft 492 kts 187°
2026-04-29 12:11 54.23368 7.70041 30507 ft 492 kts 187°
2026-04-29 12:11 54.20009 7.68954 30772 ft 491 kts 187°
2026-04-29 12:11 54.16651 7.67869 31045 ft 491 kts 187°
2026-04-29 12:11 54.13297 7.66788 31313 ft 490 kts 187°
2026-04-29 12:12 54.09952 7.65712 31569 ft 490 kts 187°
2026-04-29 12:12 54.06600 7.64635 31811 ft 490 kts 186°
2026-04-29 12:12 54.03243 7.63557 32061 ft 489 kts 186°
2026-04-29 12:12 53.99918 7.62491 32330 ft 488 kts 186°
2026-04-29 12:13 53.96561 7.61417 32588 ft 487 kts 186°
2026-04-29 12:13 53.93228 7.60329 32831 ft 488 kts 188°
2026-04-29 12:13 53.89958 7.58713 33024 ft 492 kts 197°
2026-04-29 12:13 53.86773 7.56580 33272 ft 492 kts 199°
2026-04-29 12:14 53.83592 7.54442 33533 ft 491 kts 198°
2026-04-29 12:14 53.80480 7.52242 33806 ft 490 kts 203°
2026-04-29 12:14 53.77477 7.49335 34073 ft 492 kts 212°
2026-04-29 12:14 53.74657 7.46095 34344 ft 491 kts 213°
2026-04-29 12:15 53.71895 7.42848 34460 ft 491 kts 213°
2026-04-29 12:15 53.69083 7.39542 34447 ft 493 kts 212°
2026-04-29 12:15 53.63438 7.33005 34457 ft 491 kts 212°
2026-04-29 12:16 53.57787 7.26571 34456 ft 490 kts 212°
2026-04-29 12:16 53.52141 7.20183 34459 ft 488 kts 211°
2026-04-29 12:17 53.46505 7.13821 34458 ft 487 kts 211°
2026-04-29 12:17 53.40878 7.07483 34453 ft 487 kts 211°
2026-04-29 12:18 53.35290 7.01189 34457 ft 487 kts 213°
2026-04-29 12:18 53.30344 6.93445 34457 ft 489 kts 228°
2026-04-29 12:19 53.25930 6.84795 34432 ft 489 kts 229°
2026-04-29 12:19 53.21465 6.76204 34433 ft 490 kts 227°
2026-04-29 12:20 53.16953 6.67685 34424 ft 490 kts 227°
2026-04-29 12:20 53.12486 6.59100 34432 ft 491 kts 229°
2026-04-29 12:21 53.08065 6.50422 34434 ft 491 kts 229°
2026-04-29 12:21 53.03637 6.41766 34429 ft 491 kts 228°
2026-04-29 12:22 52.99194 6.33146 34425 ft 491 kts 228°
2026-04-29 12:22 52.94736 6.24538 34422 ft 491 kts 228°
2026-04-29 12:23 52.90278 6.15961 34417 ft 491 kts 228°
2026-04-29 12:23 52.85846 6.07461 34410 ft 490 kts 227°
2026-04-29 12:24 52.81393 5.98949 34410 ft 489 kts 227°
2026-04-29 12:24 52.76925 5.90434 34403 ft 489 kts 227°
2026-04-29 12:25 52.72471 5.81976 34399 ft 488 kts 227°
2026-04-29 12:26 52.65782 5.69356 34384 ft 487 kts 227°
2026-04-29 12:26 52.61394 5.61110 34374 ft 486 kts 227°
2026-04-29 12:27 52.56941 5.52763 34383 ft 485 kts 226°
2026-04-29 12:27 52.52485 5.44437 34367 ft 485 kts 226°
2026-04-29 12:28 52.48019 5.36120 34389 ft 484 kts 226°
2026-04-29 12:28 52.43556 5.27839 34373 ft 484 kts 226°
2026-04-29 12:29 52.39126 5.19640 34380 ft 484 kts 226°
2026-04-29 12:29 52.34569 5.11539 34356 ft 481 kts 218°
2026-04-29 12:30 52.29094 5.05485 34359 ft 471 kts 201°
2026-04-29 12:30 52.23170 5.00900 34371 ft 471 kts 201°
2026-04-29 12:31 52.17246 4.96304 34358 ft 472 kts 201°
2026-04-29 12:31 52.11328 4.91636 34360 ft 473 kts 201°
2026-04-29 12:32 52.05404 4.86950 34356 ft 473 kts 201°
2026-04-29 12:32 51.99510 4.82304 34337 ft 474 kts 201°
2026-04-29 12:33 51.93572 4.77640 34328 ft 474 kts 201°
2026-04-29 12:33 51.87623 4.72985 34324 ft 474 kts 201°
2026-04-29 12:34 51.81674 4.68345 34321 ft 474 kts 201°
2026-04-29 12:34 51.76700 4.64473 34310 ft 473 kts 201°
2026-04-29 12:35 51.73186 4.61742 34309 ft 473 kts 201°
2026-04-29 12:35 51.67255 4.57142 34303 ft 471 kts 201°
2026-04-29 12:36 51.61347 4.52582 34292 ft 470 kts 201°
2026-04-29 12:36 51.55460 4.48055 34298 ft 468 kts 201°
2026-04-29 12:37 51.49589 4.43550 34282 ft 467 kts 201°
2026-04-29 12:37 51.43764 4.39091 34300 ft 465 kts 201°
2026-04-29 12:38 51.37918 4.34632 34286 ft 464 kts 201°
2026-04-29 12:38 51.32083 4.30201 34288 ft 464 kts 201°
2026-04-29 12:39 51.26255 4.25778 34288 ft 463 kts 201°
2026-04-29 12:39 51.20421 4.21355 34286 ft 464 kts 201°
2026-04-29 12:40 51.14546 4.17139 34280 ft 461 kts 196°
2026-04-29 12:40 51.08481 4.13841 34274 ft 461 kts 194°
2026-04-29 12:41 51.02428 4.10657 34261 ft 461 kts 194°
2026-04-29 12:41 50.96347 4.07361 34265 ft 462 kts 195°
2026-04-29 12:42 50.90264 4.04040 34263 ft 462 kts 195°
2026-04-29 12:42 50.84219 4.00536 34258 ft 463 kts 198°
2026-04-29 12:43 50.78256 3.96646 34252 ft 463 kts 199°
2026-04-29 12:43 50.72304 3.92771 34253 ft 461 kts 199°
2026-04-29 12:44 50.66364 3.88975 34239 ft 460 kts 199°
2026-04-29 12:44 50.60477 3.85237 34238 ft 457 kts 199°
2026-04-29 12:45 50.54599 3.81444 34219 ft 456 kts 200°
2026-04-29 12:45 50.48791 3.77440 34217 ft 454 kts 201°
2026-04-29 12:46 50.43014 3.73468 34203 ft 452 kts 200°
2026-04-29 12:46 50.37278 3.69410 34182 ft 453 kts 210°
2026-04-29 12:46 50.34842 3.66286 34224 ft 455 kts 227°
2026-04-29 12:47 50.33015 3.62229 34177 ft 458 kts 244°
2026-04-29 12:47 50.30918 3.52833 34182 ft 459 kts 252°
2026-04-29 12:48 50.28954 3.43271 34190 ft 465 kts 251°
2026-04-29 12:48 50.26882 3.33666 34188 ft 467 kts 251°
2026-04-29 12:49 50.24786 3.24111 34201 ft 469 kts 251°
2026-04-29 12:49 50.23539 3.19407 34162 ft 469 kts 239°
2026-04-29 12:49 50.21628 3.15326 34201 ft 465 kts 226°
2026-04-29 12:49 50.19197 3.12012 34176 ft 463 kts 212°
2026-04-29 12:50 50.16411 3.09544 34196 ft 460 kts 207°
2026-04-29 12:50 50.10728 3.04989 34158 ft 459 kts 207°
2026-04-29 12:51 50.05054 3.00419 34159 ft 459 kts 208°
2026-04-29 12:51 49.99404 2.95794 34173 ft 459 kts 209°
2026-04-29 12:52 49.94700 2.91925 34154 ft 460 kts 210°
2026-04-29 12:52 49.89037 2.87271 34158 ft 460 kts 210°
2026-04-29 12:53 49.83381 2.82635 34146 ft 460 kts 210°
2026-04-29 12:53 49.77725 2.78017 34147 ft 459 kts 210°
2026-04-29 12:54 49.72082 2.73423 34159 ft 457 kts 210°
2026-04-29 12:54 49.66456 2.68854 34157 ft 456 kts 210°
2026-04-29 12:55 49.60832 2.64297 34140 ft 456 kts 210°
2026-04-29 12:55 49.55208 2.59753 34131 ft 457 kts 210°
2026-04-29 12:56 49.49569 2.55208 34141 ft 458 kts 209°
2026-04-29 12:56 49.43910 2.50659 34140 ft 459 kts 209°
2026-04-29 12:57 49.38235 2.46109 34136 ft 460 kts 209°
2026-04-29 12:57 49.32557 2.41569 34130 ft 461 kts 209°
2026-04-29 12:58 49.27110 2.37223 34134 ft 462 kts 209°
2026-04-29 12:58 49.21592 2.32228 34114 ft 458 kts 222°
2026-04-29 12:59 49.17428 2.25084 34094 ft 445 kts 242°
2026-04-29 12:59 49.14470 2.16865 34107 ft 439 kts 243°
2026-04-29 13:00 49.11518 2.08716 34098 ft 438 kts 242°
2026-04-29 13:00 49.08605 2.00563 34100 ft 437 kts 246°
2026-04-29 13:01 49.06071 1.92166 33725 ft 436 kts 246°
2026-04-29 13:01 49.04836 1.87941 33873 ft 436 kts 246°
2026-04-29 13:01 49.03591 1.83706 33930 ft 439 kts 245°
2026-04-29 13:02 49.01069 1.75255 34000 ft 444 kts 245°
2026-04-29 13:02 48.99757 1.70911 34399 ft 447 kts 246°
2026-04-29 13:02 48.98455 1.66618 34264 ft 445 kts 246°
2026-04-29 13:03 48.95909 1.58260 34111 ft 432 kts 246°
2026-04-29 13:03 48.93389 1.50015 34094 ft 428 kts 245°
2026-04-29 13:04 48.90865 1.41776 34093 ft 431 kts 245°
2026-04-29 13:04 48.88319 1.33494 34096 ft 435 kts 245°
2026-04-29 13:05 48.85741 1.25135 34098 ft 437 kts 245°
2026-04-29 13:05 48.83152 1.16770 34096 ft 438 kts 245°
2026-04-29 13:06 48.80558 1.08415 34065 ft 435 kts 245°
2026-04-29 13:06 48.77993 1.00181 34055 ft 429 kts 244°
2026-04-29 13:07 48.75447 0.92031 34069 ft 427 kts 244°
2026-04-29 13:07 48.72647 0.84048 34057 ft 431 kts 238°
2026-04-29 13:08 48.69468 0.76321 34055 ft 437 kts 237°
2026-04-29 13:08 48.66224 0.68499 34037 ft 440 kts 237°
2026-04-29 13:09 48.63004 0.60641 34023 ft 438 kts 237°
2026-04-29 13:09 48.59817 0.52834 34027 ft 435 kts 237°
2026-04-29 13:10 48.56648 0.45084 34021 ft 431 kts 237°
2026-04-29 13:10 48.53511 0.37439 34029 ft 425 kts 237°
2026-04-29 13:11 48.50428 0.29944 34024 ft 417 kts 236°
2026-04-29 13:11 48.47376 0.22551 34038 ft 419 kts 237°
2026-04-29 13:12 48.44290 0.15092 34032 ft 419 kts 236°
2026-04-29 13:12 48.41211 0.07670 34009 ft 415 kts 236°
2026-04-29 13:13 48.38149 0.00310 34021 ft 415 kts 236°
2026-04-29 13:13 48.34981 -0.06986 34016 ft 417 kts 232°
2026-04-29 13:14 48.31511 -0.13915 34015 ft 418 kts 231°
2026-04-29 13:14 48.27999 -0.20907 34011 ft 421 kts 232°
2026-04-29 13:15 48.24485 -0.27953 34001 ft 424 kts 231°
2026-04-29 13:15 48.20880 -0.35019 33994 ft 425 kts 231°
2026-04-29 13:16 48.17271 -0.42050 33984 ft 426 kts 231°
2026-04-29 13:16 48.13681 -0.49042 33974 ft 425 kts 231°
2026-04-29 13:17 48.10068 -0.56072 33967 ft 423 kts 231°
2026-04-29 13:17 48.06487 -0.63023 33965 ft 420 kts 231°
2026-04-29 13:18 48.02926 -0.69919 33963 ft 418 kts 231°
2026-04-29 13:18 47.99408 -0.76712 33966 ft 416 kts 231°
2026-04-29 13:19 47.95866 -0.83537 33967 ft 414 kts 231°
2026-04-29 13:19 47.92344 -0.90306 33973 ft 413 kts 231°
2026-04-29 13:20 47.88820 -0.97060 33973 ft 412 kts 230°
2026-04-29 13:20 47.85318 -1.03757 33973 ft 412 kts 230°
2026-04-29 13:21 47.81793 -1.10481 33970 ft 412 kts 230°
2026-04-29 13:21 47.78251 -1.17221 33973 ft 413 kts 230°
2026-04-29 13:22 47.74706 -1.23950 33973 ft 414 kts 230°
2026-04-29 13:22 47.71144 -1.30694 33966 ft 415 kts 230°
2026-04-29 13:23 47.67579 -1.37430 33967 ft 415 kts 230°
2026-04-29 13:23 47.64003 -1.44171 33969 ft 415 kts 230°
2026-04-29 13:24 47.60448 -1.50853 33960 ft 415 kts 230°
2026-04-29 13:24 47.56668 -1.57370 33965 ft 414 kts 226°
2026-04-29 13:25 47.52816 -1.63609 33958 ft 413 kts 226°
2026-04-29 13:25 47.47036 -1.73033 33948 ft 412 kts 226°
2026-04-29 13:26 47.43189 -1.79336 33943 ft 411 kts 226°
2026-04-29 13:26 47.39363 -1.85595 33945 ft 410 kts 226°
2026-04-29 13:27 47.35484 -1.91776 33938 ft 409 kts 221°
2026-04-29 13:27 47.30888 -1.96602 33945 ft 405 kts 210°
2026-04-29 13:28 47.26046 -2.00858 33939 ft 405 kts 210°
2026-04-29 13:28 47.21208 -2.05134 33933 ft 405 kts 210°
2026-04-29 13:29 47.16428 -2.09383 33939 ft 405 kts 210°
2026-04-29 13:29 47.11605 -2.13673 33935 ft 404 kts 210°
2026-04-29 13:30 47.06788 -2.17950 33936 ft 404 kts 210°
2026-04-29 13:30 47.01966 -2.22222 33936 ft 404 kts 210°
2026-04-29 13:31 46.97152 -2.26478 33937 ft 404 kts 210°
2026-04-29 13:31 46.92332 -2.30731 33934 ft 404 kts 210°
2026-04-29 13:32 46.87551 -2.34940 33929 ft 403 kts 210°
2026-04-29 13:32 46.82737 -2.39168 33928 ft 403 kts 210°
2026-04-29 13:33 46.77926 -2.43387 33919 ft 403 kts 210°
2026-04-29 13:33 46.73118 -2.47597 33918 ft 403 kts 210°
2026-04-29 13:34 46.68312 -2.51797 33931 ft 402 kts 210°
2026-04-29 13:34 46.63537 -2.55962 33936 ft 402 kts 210°
2026-04-29 13:35 46.58735 -2.60140 33928 ft 403 kts 210°
2026-04-29 13:35 46.53909 -2.64331 33918 ft 404 kts 210°
2026-04-29 13:36 46.49088 -2.68509 33919 ft 403 kts 210°
2026-04-29 13:36 46.44271 -2.72676 33915 ft 402 kts 210°
2026-04-29 13:37 46.39459 -2.76829 33915 ft 402 kts 210°
2026-04-29 13:37 46.34650 -2.80972 33914 ft 402 kts 210°
2026-04-29 13:38 46.29873 -2.85080 33913 ft 401 kts 210°
2026-04-29 13:38 46.24973 -2.88936 33901 ft 401 kts 202°
2026-04-29 13:39 46.20683 -2.91456 33904 ft 400 kts 202°
2026-04-29 13:39 46.15519 -2.94469 33904 ft 400 kts 202°
2026-04-29 13:40 46.10360 -2.97496 33902 ft 400 kts 202°
2026-04-29 13:40 46.05207 -3.00528 33899 ft 400 kts 202°
2026-04-29 13:41 46.00058 -3.03557 33896 ft 400 kts 202°
2026-04-29 13:41 45.94912 -3.06580 33894 ft 399 kts 202°
2026-04-29 13:42 45.89761 -3.09598 33892 ft 399 kts 202°
2026-04-29 13:42 45.84620 -3.12606 33897 ft 399 kts 202°
2026-04-29 13:43 45.79461 -3.15617 33883 ft 401 kts 202°
2026-04-29 13:43 45.74291 -3.18629 33883 ft 401 kts 201°
2026-04-29 13:44 45.69146 -3.21620 34129 ft 401 kts 201°
2026-04-29 13:44 45.66567 -3.23117 34370 ft 399 kts 201°
2026-04-29 13:44 45.63966 -3.24626 34585 ft 398 kts 201°
2026-04-29 13:45 45.61427 -3.26097 34732 ft 399 kts 201°
2026-04-29 13:45 45.58853 -3.27587 34860 ft 400 kts 201°
2026-04-29 13:45 45.53667 -3.30584 35018 ft 404 kts 201°
2026-04-29 13:46 45.51051 -3.32093 35121 ft 405 kts 201°
2026-04-29 13:46 45.48440 -3.33598 35302 ft 405 kts 201°
2026-04-29 13:46 45.45827 -3.35103 35462 ft 405 kts 201°
2026-04-29 13:46 45.43213 -3.36607 35594 ft 406 kts 201°
2026-04-29 13:47 45.40591 -3.38114 35718 ft 406 kts 201°
2026-04-29 13:47 45.37975 -3.39616 35842 ft 405 kts 201°
2026-04-29 13:47 45.32764 -3.42604 35865 ft 408 kts 201°
2026-04-29 13:48 45.27507 -3.45612 35861 ft 408 kts 201°
2026-04-29 13:48 45.22244 -3.48617 35863 ft 408 kts 201°
2026-04-29 13:49 45.16973 -3.51621 35857 ft 408 kts 201°
2026-04-29 13:49 45.11704 -3.54618 35857 ft 408 kts 201°
2026-04-29 13:50 45.06441 -3.57605 35851 ft 407 kts 201°
2026-04-29 13:50 45.01180 -3.60586 35852 ft 407 kts 201°
2026-04-29 13:51 44.95924 -3.63557 35853 ft 406 kts 201°
2026-04-29 13:51 44.90672 -3.66521 35849 ft 406 kts 201°
2026-04-29 13:52 44.85455 -3.69459 35846 ft 406 kts 201°
2026-04-29 13:52 44.80215 -3.72404 35852 ft 405 kts 201°
2026-04-29 13:53 44.74969 -3.75347 35843 ft 405 kts 201°
2026-04-29 13:53 44.69730 -3.78280 35845 ft 405 kts 201°
2026-04-29 13:54 44.64492 -3.81207 35844 ft 405 kts 201°
2026-04-29 13:54 44.59260 -3.84124 35842 ft 405 kts 201°
2026-04-29 13:55 44.54058 -3.87020 35844 ft 405 kts 201°
2026-04-29 13:55 44.48821 -3.89930 35841 ft 405 kts 201°
2026-04-29 13:56 44.43579 -3.92837 35841 ft 405 kts 201°
2026-04-29 13:56 44.38332 -3.95742 35841 ft 406 kts 201°
2026-04-29 13:57 44.33077 -3.98645 35836 ft 406 kts 201°
2026-04-29 13:57 44.27866 -4.01747 35840 ft 407 kts 203°
2026-04-29 13:58 44.22732 -4.04976 35836 ft 408 kts 203°
2026-04-29 13:58 44.17544 -4.08223 35836 ft 409 kts 203°
2026-04-29 13:59 44.12347 -4.11444 35835 ft 409 kts 203°
2026-04-29 13:59 44.07141 -4.14650 35833 ft 409 kts 203°
2026-04-29 14:00 44.01925 -4.17854 35835 ft 410 kts 203°
2026-04-29 14:00 43.96706 -4.21054 35837 ft 410 kts 203°
2026-04-29 14:01 43.91484 -4.24249 35836 ft 410 kts 202°
2026-04-29 14:01 43.86255 -4.27442 35836 ft 411 kts 202°
2026-04-29 14:02 43.81029 -4.30628 35834 ft 411 kts 202°
2026-04-29 14:02 43.75787 -4.33817 35836 ft 411 kts 202°
2026-04-29 14:03 43.70582 -4.36978 35834 ft 411 kts 202°
2026-04-29 14:03 43.65339 -4.40155 35835 ft 411 kts 202°
2026-04-29 14:04 43.60094 -4.43328 35831 ft 412 kts 202°
2026-04-29 14:04 43.54841 -4.46499 35852 ft 412 kts 202°
2026-04-29 14:05 43.49579 -4.49670 35838 ft 413 kts 202°
2026-04-29 14:05 43.44307 -4.52841 35833 ft 413 kts 202°
2026-04-29 14:06 43.39037 -4.56005 35833 ft 413 kts 202°
2026-04-29 14:06 43.33769 -4.59162 35835 ft 413 kts 202°
2026-04-29 14:07 43.28534 -4.62293 35853 ft 413 kts 202°
2026-04-29 14:07 43.23257 -4.65442 35837 ft 414 kts 202°
2026-04-29 14:08 43.17978 -4.68587 35836 ft 414 kts 202°
2026-04-29 14:08 43.12697 -4.71727 35828 ft 413 kts 202°
2026-04-29 14:09 43.07422 -4.74859 35818 ft 412 kts 202°
2026-04-29 14:09 43.02161 -4.77975 35824 ft 412 kts 202°
2026-04-29 14:10 42.96900 -4.81086 35829 ft 411 kts 202°
2026-04-29 14:10 42.91672 -4.84172 35837 ft 412 kts 202°
2026-04-29 14:11 42.86406 -4.87275 35835 ft 412 kts 202°
2026-04-29 14:11 42.81133 -4.90376 35850 ft 414 kts 202°
2026-04-29 14:12 42.75835 -4.93486 35838 ft 415 kts 202°
2026-04-29 14:12 42.70516 -4.96603 35827 ft 416 kts 202°
2026-04-29 14:13 42.65282 -4.99963 35818 ft 418 kts 211°
2026-04-29 14:13 42.60452 -5.04275 35833 ft 418 kts 212°
2026-04-29 14:14 42.55597 -5.08643 35834 ft 419 kts 212°
2026-04-29 14:14 42.50725 -5.12990 35831 ft 419 kts 212°
2026-04-29 14:15 42.45836 -5.17323 35825 ft 419 kts 212°
2026-04-29 14:15 42.40947 -5.21642 35828 ft 419 kts 212°
2026-04-29 14:16 42.36062 -5.25949 35833 ft 419 kts 212°
2026-04-29 14:16 42.31194 -5.30232 35822 ft 419 kts 212°
2026-04-29 14:17 42.26308 -5.34524 35827 ft 419 kts 212°
2026-04-29 14:17 42.21409 -5.38819 35822 ft 419 kts 212°
2026-04-29 14:18 42.16505 -5.43110 35826 ft 420 kts 212°
2026-04-29 14:18 42.11607 -5.47388 35825 ft 420 kts 212°
2026-04-29 14:19 42.06694 -5.51672 35820 ft 421 kts 212°
2026-04-29 14:19 42.01801 -5.55930 35818 ft 421 kts 212°
2026-04-29 14:20 41.96868 -5.60215 35823 ft 422 kts 212°
2026-04-29 14:20 41.91940 -5.64488 35819 ft 422 kts 212°
2026-04-29 14:21 41.86999 -5.68763 35822 ft 422 kts 212°
2026-04-29 14:21 41.82060 -5.73029 35820 ft 423 kts 212°